Location: Berkeley
(37.8716°N, 122.2727°W)
Time: 17:09:57
(UTC-07:00)

N. Korean satellite - Pass Details

Date: 20 March 2019
Orbit: 458 x 508 km, 97.2° (Epoch: 25 April)

Event Time Altitude Azimuth Distance (km) Brightness Sun altitude
Rises 06:22:58 0° 32° (NNE) 2,520 10.8 -10.6°
Reaches altitude 10° 06:25:40 10° 55° (NE) 1,647 10.4 -10.1°
Maximum altitude 06:27:52 16° 94° (E) 1,341 10.1 -9.7°
Drops below altitude 10° 06:30:05 10° 133° (SE) 1,657 9.9 -9.3°
Sets 06:32:48 0° 156° (SSE) 2,543 10.5 -8.7°
